FW5910 Weather Reports


Display with metric or nautical units.
time (UTC)temp
F
wind
direction
speed
MPH
gust
MPH
rain 1hr
in
rain 24hr
in
rain mn
in
humidity
%
barometer
mb
20260905104043 51 194 0.0 0.0 0.00 0.11 0.00 73 1016.6
20260905103541 51 336 0.0 0.0 0.00 0.11 0.00 72 1016.5
20260905103039 51 339 0.0 0.0 0.00 0.11 0.00 72 1016.0
20260905102539 51 339 0.0 0.0 0.00 0.11 0.00 72 1016.1
20260905101539 51 339 0.0 0.0 0.00 0.11 0.00 72 1016.1
20260905101040 51 339 0.0 0.0 0.00 0.11 0.00 72 1016.1
20260905100539 51 339 0.0 0.0 0.00 0.11 0.00 72 1015.9
20260905100039 51 342 0.0 0.0 0.00 0.11 0.00 72 1015.9
20260905095540 51 343 0.0 0.0 0.00 0.11 0.00 72 1016.0
20260905095036 51 342 0.0 0.0 0.00 0.11 0.00 72 1016.0
20260905094534 51 342 0.0 0.0 0.00 0.11 0.00 71 1016.1
20260905094035 51 343 0.0 0.0 0.00 0.11 0.00 71 1016.2
20260905093535 51 342 0.0 0.0 0.00 0.11 0.00 71 1016.1
20260905092535 51 342 0.0 0.0 0.00 0.11 0.00 71 1016.2
20260905092034 51 343 0.0 0.0 0.00 0.11 0.00 71 1016.4
20260905091534 51 344 0.0 0.0 0.00 0.11 0.00 72 1016.4
20260905091035 51 344 0.0 0.0 0.00 0.11 0.00 72 1016.3
20260905090534 51 344 0.0 0.0 0.00 0.11 0.00 72 1015.9
20260905090034 51 344 0.0 0.0 0.00 0.11 0.00 72 1015.7
20260905085534 51 344 0.0 0.0 0.00 0.11 0.00 71 1016.0
20260905085035 51 343 0.0 0.0 0.00 0.11 0.00 72 1016.0
20260905084535 51 343 0.0 0.0 0.00 0.11 0.00 72 1016.2
20260905084036 51 343 0.0 0.0 0.00 0.11 0.00 72 1016.3
20260905083035 51 342 0.0 0.0 0.00 0.11 0.00 72 1016.3
20260905082535 51 344 0.0 0.0 0.00 0.11 0.00 72 1016.3
20260905082035 51 344 0.0 0.0 0.00 0.11 0.00 72 1016.2
20260905081537 51 344 0.0 0.0 0.00 0.11 0.00 72 1016.2
20260905081036 51 344 0.0 0.0 0.00 0.11 0.00 71 1016.3
20260905080536 51 344 0.0 0.0 0.00 0.11 0.00 72 1016.3
20260905075534 51 10 0.0 0.0 0.00 0.11 0.00 72 1016.4
20260905075037 52 11 0.0 0.0 0.00 0.11 0.00 71 1016.3
20260905073531 52 11 0.0 0.0 0.00 0.11 0.00 71 1016.4
20260905072529 52 11 0.0 0.0 0.00 0.11 0.00 69 1016.8
20260905071529 52 11 0.0 0.0 0.00 0.11 0.00 71 1016.8
20260905071031 52 12 0.0 0.0 0.00 0.11 0.00 71 1016.7
20260905070529 52 12 0.0 0.0 0.00 0.11 0.00 71 1016.6
20260905065531 51 12 0.0 0.0 0.00 0.11 0.00 70 1016.4
20260905065033 52 9 0.0 0.0 0.00 0.11 0.00 71 1016.2
20260905064531 52 9 0.0 0.0 0.00 0.11 0.00 70 1016.1
20260905064029 53 9 0.0 0.0 0.00 0.11 0.00 70 1015.9
20260905063532 53 9 0.0 0.0 0.00 0.11 0.00 70 1015.7
20260905062029 53 90 0.0 0.0 0.00 0.11 0.00 70 1016.2
20260905061530 53 90 0.0 0.0 0.00 0.11 0.00 69 1016.1
20260905061029 54 90 0.0 0.0 0.00 0.11 0.00 69 1016.0
20260905060529 54 90 0.0 0.0 0.00 0.11 0.00 69 1016.1
20260905060029 54 46 0.0 0.0 0.00 0.11 0.00 67 1016.2
20260905055529 54 46 0.0 0.0 0.00 0.11 0.11 67 1016.2
20260905055030 54 46 0.0 0.0 0.00 0.11 0.11 66 1016.2
20260905054529 54 46 0.0 0.0 0.00 0.11 0.11 66 1016.3
20260905053530 55 46 0.0 0.0 0.00 0.11 0.11 66 1016.5
20260905053029 55 46 0.0 4.0 0.00 0.11 0.11 66 1016.5
20260905052530 54 47 1.0 4.0 0.00 0.11 0.11 66 1016.6
20260905052029 54 78 0.0 3.0 0.00 0.11 0.11 66 1016.5
20260905051529 54 126 0.0 0.0 0.00 0.11 0.11 67 1016.6
20260905050531 54 329 0.0 0.0 0.00 0.11 0.11 67 1016.2
20260905050031 54 217 0.0 0.0 0.00 0.11 0.11 67 1016.0
20260905045530 54 217 0.0 0.0 0.00 0.11 0.11 66 1016.1
20260905045029 55 217 0.0 0.0 0.00 0.11 0.11 64 1016.2
20260905044530 55 217 0.0 0.0 0.00 0.11 0.11 64 1016.2
20260905044029 55 217 0.0 0.0 0.00 0.11 0.11 63 1016.3
20260905043531 55 217 0.0 0.0 0.00 0.11 0.11 62 1016.3
20260905043029 55 217 0.0 0.0 0.00 0.11 0.11 61 1016.3
20260905042530 55 217 0.0 0.0 0.00 0.11 0.11 62 1016.3
20260905042029 55 217 0.0 0.0 0.00 0.11 0.11 65 1016.3
20260905041530 55 217 0.0 0.0 0.00 0.11 0.11 64 1016.5
20260905040531 55 217 0.0 0.0 0.00 0.11 0.11 60 1016.2
20260905040029 55 217 0.0 0.0 0.00 0.11 0.11 61 1016.2
20260905035530 55 217 0.0 0.0 0.00 0.11 0.11 61 1016.2
20260905034529 55 218 0.0 0.0 0.00 0.11 0.11 69 1016.0
20260905033531 56 218 0.0 0.0 0.00 0.11 0.11 67 1016.0
20260905033030 56 217 0.0 0.0 0.00 0.11 0.11 66 1016.0
20260905032532 56 224 0.0 0.0 0.00 0.11 0.11 67 1015.9
20260905032031 56 225 0.0 0.0 0.00 0.11 0.11 67 1016.0
20260905031032 56 225 0.0 0.0 0.00 0.11 0.11 66 1016.0
20260905030529 56 225 0.0 0.0 0.00 0.11 0.11 65 1016.1
20260905030030 56 225 0.0 0.0 0.00 0.11 0.11 64 1016.2
20260905025530 56 225 0.0 0.0 0.00 0.11 0.11 64 1016.2
20260905025029 56 224 0.0 0.0 0.00 0.11 0.11 62 1016.3
20260905024529 56 0 0.0 0.0 0.00 0.11 0.11 62 1016.3
20260905024029 57 0 0.0 0.0 0.00 0.11 0.11 60 1016.2
20260905023529 57 0 0.0 0.0 0.00 0.11 0.11 60 1016.1
20260905022528 57 0 0.0 0.0 0.00 0.11 0.11 57 1016.0
20260905022029 57 0 0.0 0.0 0.00 0.11 0.11 56 1015.7
20260905021529 58 0 0.0 0.0 0.00 0.11 0.11 57 1015.7
20260905020529 58 0 0.0 0.0 0.00 0.11 0.11 59 1015.5
20260905020027 58 0 0.0 0.0 0.00 0.11 0.11 60 1015.4
20260905015521 58 0 0.0 0.0 0.00 0.11 0.11 61 1015.5
20260905015015 58 0 0.0 0.0 0.00 0.11 0.11 59 1015.4
20260905014516 59 0 0.0 0.0 0.00 0.11 0.11 59 1015.3
20260905013010 60 0 0.0 0.0 0.00 0.11 0.11 57 1015.1
20260905012508 60 0 0.0 0.0 0.00 0.11 0.11 56 1015.1
20260905012008 61 0 0.0 0.0 0.00 0.11 0.11 56 1015.0
20260905011507 61 0 0.0 0.0 0.00 0.11 0.11 56 1015.0
20260905011007 61 0 0.0 0.0 0.00 0.11 0.11 55 1015.2
20260905010004 62 0 0.0 0.0 0.00 0.11 0.11 55 1015.1
20260905005504 62 0 0.0 0.0 0.00 0.11 0.11 54 1015.2
20260905005005 62 0 0.0 0.0 0.00 0.11 0.11 52 1015.3
20260905004005 62 0 0.0 0.0 0.00 0.11 0.11 51 1015.4
20260905003502 62 0 0.0 0.0 0.00 0.11 0.11 50 1015.3
20260905003001 62 0 0.0 0.0 0.00 0.11 0.11 50 1015.2
20260905002504 62 0 0.0 0.0 0.00 0.11 0.11 50 1015.3
20260905002001 63 0 0.0 0.0 0.00 0.11 0.11 49 1015.2
20260905001458 63 0 0.0 0.0 0.00 0.11 0.11 48 1015.1
20260905000952 63 0 0.0 0.0 0.00 0.11 0.11 48 1014.8
20260905000449 63 0 0.0 0.0 0.00 0.11 0.11 47 1014.8
20260904235950 64 221 0.0 0.0 0.00 0.11 0.11 46 1014.9
20260904235448 64 221 0.0 0.0 0.00 0.11 0.11 44 1014.9
20260904234947 64 221 0.0 0.0 0.00 0.11 0.11 43 1014.9
20260904234447 64 220 0.0 0.0 0.00 0.11 0.11 45 1015.0
20260904233444 63 220 0.0 0.0 0.00 0.11 0.11 44 1014.9
20260904232942 63 220 0.0 0.0 0.00 0.11 0.11 45 1014.8
20260904232440 63 220 0.0 0.0 0.00 0.11 0.11 43 1014.9
20260904231937 64 220 0.0 0.0 0.00 0.11 0.11 43 1014.9
20260904230935 64 220 0.0 0.0 0.00 0.11 0.11 45 1015.0
20260904230432 64 0 0.0 0.0 0.00 0.11 0.11 45 1015.0
20260904225929 64 0 0.0 0.0 0.00 0.11 0.11 45 1015.2
20260904225429 63 0 0.0 1.0 0.00 0.11 0.11 46 1015.1
20260904224929 63 0 0.0 1.0 0.00 0.11 0.11 44 1015.1
20260904224429 63 0 0.0 0.0 0.00 0.11 0.11 45 1015.1
20260904223930 63 117 0.0 0.0 0.00 0.11 0.11 44 1015.0
20260904222929 63 142 1.0 4.0 0.00 0.11 0.11 47 1015.1
20260904221921 62 160 1.0 4.0 0.00 0.11 0.11 46 1015.1
20260904221416 62 168 1.0 4.0 0.00 0.11 0.11 46 1015.0
20260904220910 62 173 1.0 2.0 0.00 0.11 0.11 47 1014.9
20260904220403 62 171 1.0 3.0 0.00 0.11 0.11 46 1014.9
20260904215903 62 0 1.0 4.0 0.00 0.11 0.11 48 1015.0
20260904215404 62 161 1.0 4.0 0.00 0.11 0.11 49 1015.0
20260904214905 62 148 1.0 4.0 0.00 0.11 0.11 48 1015.1
20260904214404 62 219 1.0 5.0 0.00 0.11 0.11 49 1015.2
20260904213402 63 209 1.0 4.0 0.00 0.11 0.11 53 1015.3
20260904212903 63 199 1.0 6.0 0.00 0.11 0.11 57 1015.3
20260904212404 63 200 2.0 6.0 0.00 0.11 0.11 57 1015.1
20260904211903 62 263 2.0 7.0 0.00 0.11 0.11 57 1015.2
20260904211406 62 278 2.0 7.0 0.00 0.11 0.11 59 1015.2
20260904210903 61 135 3.0 7.0 0.00 0.11 0.11 61 1015.2
20260904210403 61 173 2.0 6.0 0.00 0.11 0.11 63 1015.1
20260904204402 61 0 0.0 3.0 0.00 0.11 0.11 67 1014.8
20260904203903 59 126 0.0 1.0 0.00 0.11 0.11 70 1014.8
20260904203400 59 128 1.0 3.0 0.00 0.11 0.11 71 1014.8
20260904202852 58 126 2.0 4.0 0.00 0.11 0.11 73 1014.9
20260904202346 58 0 1.0 4.0 0.00 0.11 0.11 74 1014.9
20260904201841 58 0 0.0 4.0 0.00 0.11 0.11 71 1014.9
20260904201334 58 174 0.0 0.0 0.00 0.11 0.11 71 1015.0
20260904200838 58 175 0.0 0.0 0.00 0.11 0.11 73 1015.0
20260904200332 58 0 0.0 0.0 0.00 0.11 0.11 73 1015.1
20260904195831 58 0 0.0 0.0 0.00 0.11 0.11 72 1015.0
20260904195331 58 86 0.0 0.0 0.00 0.11 0.11 72 1014.9
20260904194830 57 98 1.0 4.0 0.00 0.11 0.11 74 1014.9
20260904194332 57 0 1.0 4.0 0.00 0.11 0.11 74 1015.0
20260904193332 57 0 0.0 2.0 0.00 0.11 0.11 76 1015.0
20260904192831 56 0 0.0 2.0 0.00 0.11 0.11 78 1015.0
20260904192333 56 0 1.0 2.0 0.00 0.11 0.11 78 1015.0
20260904191833 55 0 1.0 3.0 0.00 0.11 0.11 78 1015.1
20260904191330 55 0 1.0 3.0 0.00 0.11 0.11 79 1015.1
20260904190830 55 0 1.0 3.0 0.00 0.11 0.11 79 1015.2
20260904190331 55 0 0.0 2.0 0.00 0.11 0.11 80 1015.0
20260904185830 55 0 0.0 1.0 0.00 0.11 0.11 80 1015.0
20260904185331 54 0 0.0 2.0 0.00 0.11 0.11 80 1015.0
20260904184832 54 0 0.0 2.0 0.00 0.11 0.11 80 1015.0
20260904184332 54 0 0.0 2.0 0.00 0.11 0.11 80 1014.9
20260904183319 53 0 0.0 2.0 0.00 0.15 0.11 80 1014.9
20260904182817 53 0 0.0 2.0 0.00 0.21 0.11 81 1014.8
20260904182320 53 0 0.0 2.0 0.00 0.21 0.11 81 1014.8
20260904181817 53 0 0.0 0.0 0.00 0.21 0.11 81 1014.8
20260904181317 53 107 0.0 0.0 0.00 0.21 0.11 81 1014.9
20260904180314 52 107 1.0 3.0 0.00 0.22 0.11 81 1014.9
20260904175312 52 92 2.0 4.0 0.00 0.23 0.11 82 1014.8
20260904174812 52 0 1.0 4.0 0.00 0.23 0.11 82 1014.6
20260904173812 52 29 0.0 0.0 0.00 0.23 0.11 82 1014.5
20260904172809 51 29 0.0 3.0 0.00 0.23 0.11 83 1014.4
20260904172307 51 33 0.0 3.0 0.00 0.23 0.11 82 1014.2
20260904171806 51 44 0.0 2.0 0.00 0.23 0.11 83 1014.2
20260904170808 51 44 0.0 0.0 0.00 0.23 0.11 82 1014.0
20260904170305 51 44 0.0 1.0 0.00 0.23 0.11 83 1013.9
20260904165808 50 44 0.0 2.0 0.00 0.23 0.11 83 1013.9
20260904165305 50 44 0.0 2.0 0.00 0.23 0.11 82 1013.8
20260904164808 50 71 0.0 2.0 0.00 0.23 0.11 83 1013.8
20260904164308 50 349 1.0 3.0 0.00 0.23 0.11 83 1013.7
20260904163805 50 349 1.0 3.0 0.00 0.23 0.11 83 1013.7
20260904163309 50 355 1.0 3.0 0.00 0.23 0.11 83 1013.6
20260904162808 50 0 1.0 3.0 0.00 0.23 0.11 83 1013.6
20260904162307 50 347 0.0 3.0 0.00 0.23 0.11 83 1013.3
20260904161804 50 349 1.0 3.0 0.00 0.23 0.11 83 1013.3
20260904161306 49 11 1.0 3.0 0.00 0.23 0.11 84 1013.3
20260904160805 49 74 1.0 3.0 0.01 0.23 0.11 84 1013.2
20260904155805 49 339 1.0 4.0 0.01 0.22 0.11 84 1013.0
20260904155307 49 341 1.0 4.0 0.01 0.22 0.11 84 1013.0
20260904154807 49 340 1.0 3.0 0.02 0.22 0.11 84 1012.9
20260904153303 49 334 1.0 4.0 0.05 0.22 0.11 84 1012.8
20260904152758 49 339 2.0 3.0 0.05 0.22 0.11 84 1012.7
20260904152252 49 341 2.0 4.0 0.06 0.23 0.11 84 1012.8
20260904151745 49 345 2.0 4.0 0.07 0.23 0.11 84 1012.9
20260904151243 49 346 1.0 4.0 0.07 0.23 0.11 84 1012.9
20260904150238 49 355 1.0 4.0 0.07 0.23 0.10 84 1012.9
20260904145740 49 325 1.0 4.0 0.07 0.16 0.10 84 1012.9
20260904145238 49 338 1.0 3.0 0.08 0.16 0.10 84 1012.9
20260904144738 49 339 0.0 2.0 0.07 0.16 0.09 84 1012.9
20260904144238 49 339 0.0 0.0 0.06 0.16 0.08 84 1012.8
20260904143734 50 338 0.0 0.0 0.05 0.16 0.06 84 1012.8
20260904143236 50 338 0.0 0.0 0.04 0.16 0.06 84 1012.7
20260904142733 50 338 0.0 0.0 0.04 0.16 0.06 83 1012.5
20260904142233 50 340 0.0 1.0 0.04 0.16 0.05 83 1012.2
20260904141731 50 340 0.0 1.0 0.03 0.16 0.04 83 1012.2
20260904141232 50 340 0.0 1.0 0.03 0.16 0.04 83 1012.1
20260904140730 50 339 0.0 1.0 0.02 0.16 0.03 83 1011.9
20260904140232 50 340 0.0 1.0 0.02 0.16 0.03 83 1011.9
20260904135730 51 339 0.0 3.0 0.02 0.14 0.02 83 1011.7
20260904135236 51 339 1.0 3.0 0.01 0.14 0.02 82 1011.6
20260904134730 51 339 1.0 3.0 0.01 0.14 0.02 82 1011.6
20260904134232 51 316 0.0 3.0 0.01 0.15 0.02 81 1011.5
20260904133730 51 213 0.0 3.0 0.01 0.15 0.02 81 1011.4
20260904133233 51 213 1.0 3.0 0.01 0.15 0.02 80 1011.4
20260904132730 51 213 2.0 5.0 0.02 0.15 0.02 79 1011.4
20260904132234 51 213 1.0 5.0 0.01 0.16 0.01 79 1011.3
20260904131731 51 217 1.0 3.0 0.01 0.16 0.01 80 1011.2
20260904131231 51 217 1.0 3.0 0.01 0.16 0.01 80 1011.0
20260904130232 52 217 1.0 3.0 0.01 0.16 0.01 81 1010.9
20260904125736 52 214 1.0 3.0 0.01 0.15 0.01 81 1010.8
20260904125235 52 215 1.0 3.0 0.01 0.15 0.01 80 1010.8
20260904124733 52 211 1.0 3.0 0.01 0.15 0.01 81 1010.7
20260904124235 52 213 1.0 3.0 0.01 0.15 0.01 80 1010.5
20260904123737 52 221 1.0 2.0 0.01 0.15 0.01 79 1010.5
20260904123235 52 222 1.0 2.0 0.01 0.15 0.01 78 1010.5
20260904122733 52 0 1.0 2.0 0.00 0.16 0.00 78 1010.4
20260904122234 53 0 1.0 3.0 0.00 0.16 0.00 76 1010.3
20260904121732 53 0 2.0 4.0 0.00 0.16 0.00 76 1010.4
20260904121236 54 0 3.0 8.0 0.00 0.16 0.00 73 1010.3
20260904120734 53 131 4.0 8.0 0.00 0.16 0.00 73 1010.4
20260904120237 52 122 2.0 6.0 0.00 0.16 0.00 79 1010.4
20260904115733 51 126 2.0 6.0 0.00 0.16 0.00 80 1010.9
20260904114735 51 221 2.0 5.0 0.00 0.16 0.00 78 1011.2
20260904114236 51 223 3.0 7.0 0.00 0.16 0.00 77 1010.9
20260904113737 51 222 1.0 7.0 0.00 0.16 0.00 78 1010.6
20260904113234 51 190 0.0 3.0 0.00 0.16 0.00 80 1010.2
20260904112732 51 221 1.0 5.0 0.00 0.16 0.00 79 1010.1
20260904112234 51 217 3.0 6.0 0.00 0.16 0.00 78 1009.4
20260904111732 51 219 4.0 7.0 0.00 0.16 0.00 78 1009.2
20260904111237 51 229 3.0 7.0 0.00 0.16 0.00 77 1008.9
20260904110235 51 211 3.0 5.0 0.00 0.16 0.00 78 1009.0
20260904105739 51 255 3.0 7.0 0.00 0.16 0.00 79 1009.0
20260904105237 51 243 3.0 8.0 0.00 0.16 0.00 80 1009.1
20260904104735 50 126 2.0 8.0 0.00 0.16 0.00 82 1009.3